[Iaude] MPEC S16: 2023 SA [a=1.26,e=0.18,i=27.2,H=26.7]
    mpec at marsden.cfa.harvard.edu 
    mpec at marsden.cfa.harvard.edu
       
    Sat Sep 16 18:26:17 EDT 2023
    
    
  
M.P.E.C. 2023-S16                            Issued 2023 September 16, 22:24 UT
     The Minor Planet Electronic Circulars contain information on unusual
         minor planets, routine data on comets and natural satellites,
         and occasional editorial announcements.  They are published
    on behalf of Division F of the International Astronomical Union by the
          Minor Planet Center, Smithsonian Astrophysical Observatory,
                          Cambridge, MA 02138, U.S.A.
			  
             Prepared using the Tamkin Foundation Computer Network
                              MPC at CFA.HARVARD.EDU
            URL https://www.minorplanetcenter.net/    ISSN 1523-6714
                                    2023 SA                                     
Observations:
     K23S00A*1C2023 09 16.22293323 04 05.310+17 29 26.40         20.06GVES016G96
     K23S00A 1C2023 09 16.23335523 04 22.250+17 17 06.30               VES016G96
     K23S00A 1C2023 09 16.23856723 04 30.680+17 10 58.60         20.88GVES016G96
     K23S00A KC2023 09 16.25190123 04 52.338+16 55 06.56         19.16GVES016I52
     K23S00A KC2023 09 16.25272823 04 53.663+16 54 07.56         19.15GVES016I52
     K23S00A KC2023 09 16.25354523 04 54.991+16 53 09.02         18.90GVES016I52
     K23S00A KC2023 09 16.25438023 04 56.366+16 52 09.55         19.07GVES016I52
     K23S00A  C2023 09 16.26216523 04 53.02 +16 49 17.1                WES016X09
     K23S00A  C2023 09 16.26933923 05 04.69 +16 40 41.3                WES016X09
     K23S00A mC2023 09 16.31705223 06 37.962+15 36 48.64         18.85GVES016I52
     K23S00A mC2023 09 16.31718723 06 38.178+15 36 38.77         18.86GVES016I52
     K23S00A mC2023 09 16.31732723 06 38.408+15 36 28.62         18.74GVES016I52
     K23S00A mC2023 09 16.31746123 06 38.646+15 36 18.68         19.14GVES016I52
     K23S00A 1C2023 09 16.80232923 21 17.430+05 20 34.90               VES016246
     K23S00A 1C2023 09 16.80255523 21 17.720+05 20 18.60               VES016246
     K23S00A 1C2023 09 16.80278123 21 18.080+05 19 59.90               VES016246
     K23S00A 1C2023 09 16.80300723 21 18.500+05 19 42.60               VES016246
     K23S00A 1C2023 09 16.80323323 21 18.830+05 19 24.20               VES016246
     K23S00A 1C2023 09 16.80345923 21 19.300+05 19 07.80               VES016246
     K23S00A 1C2023 09 16.81248623 21 34.730+05 07 20.50               VES016246
     K23S00A 1C2023 09 16.81266523 21 35.110+05 07 07.10               VES016246
     K23S00A 1C2023 09 16.81284523 21 35.410+05 06 54.00               VES016246
     K23S00A 1C2023 09 16.81302423 21 35.640+05 06 39.20               VES016246
     K23S00A 1C2023 09 16.81320423 21 35.900+05 06 25.00               VES016246
     K23S00A 1C2023 09 16.81338423 21 36.180+05 06 11.00               VES016246
     K23S00A 1C2023 09 16.81356323 21 36.610+05 05 55.70               VES016246
     K23S00A KC2023 09 16.83838 23 22 20.026+04 34 26.44         18.2 VqES016L90
     K23S00A KC2023 09 16.84302 23 22 27.739+04 28 24.42               qES016L90
     K23S00A KC2023 09 16.84764 23 22 35.676+04 22 20.86         18.7 VqES016L90
     K23S00A KC2023 09 16.87194 23 23 16.93 +03 49 59.1          19.8 GXES016K83
     K23S00A KB2023 09 16.87471723 23 25.16 +03 46 16.6                XES016958
     K23S00A KC2023 09 16.87664 23 23 20.86 +03 43 28.2          18.5 VZES016M38
     K23S00A KB2023 09 16.87682623 23 28.71 +03 43 31.7          18.9 GXES016958
     K23S00A KC2023 09 16.87820 23 23 27.37 +03 41 46.8          19.1 GXES016K83
     K23S00A KB2023 09 16.87893023 23 32.25 +03 40 46.6                XES016958
     K23S00A KC2023 09 16.87908723 23 26.94 +03 39 59.7          18.0 GVES016G34
     K23S00A KC2023 09 16.88361 23 23 36.38 +03 34 40.9          19.7 GXES016K83
     K23S00A KC2023 09 16.88463 23 23 34.14 +03 32 58.0          18.8 VZES016M38
     K23S00A KC2023 09 16.88505423 23 36.91 +03 32 09.5          18.3 GVES016G34
     K23S00A KC2023 09 16.89101823 23 46.84 +03 24 21.2          18.4 GVES016G34
Observer details:
246 Klet Observatory-KLENOT.  Observers M. Tichy, J. Ticha, M. Janda, M.
    Honkova.  Measurer M. Tichy.  1.06-m f/2.7 Reflector + 2048x2048 CCD.
958 Observatoire de Dax.  Observer P. Dupouy.  0.50-m f/4.5 Reflector + CMO.
G34 Oberfrauendorf.  Observer T. Felber.  0.35-m f/6.3 Schmidt-Cassegrain +
    CCD.
G96 Mt. Lemmon Survey.  Observer J. K. Hogan.  Measurers E. J. Christensen, D.
    Fay, J. B. Fazekas, D. C. Fuls, A. R. Gibbs, A. D. Grauer, H. Groeller, J.
    K. Hogan, R. A. Kowalski, S. M. Larson, G. J. Leonard, D. Rankin, R. L.
    Seaman, A. Serrano, F. C. Shelly, K. W. Wierzchos.  1.5-m reflector + 10K
    CCD.
I52 Steward Observatory, Mt. Lemmon Station.  Observer D. C. Fuls.  Measurers
    E. J. Christensen, D. Fay, J. B. Fazekas, D. C. Fuls, A. R. Gibbs, A. D.
    Grauer, H. Groeller, J. K. Hogan, R. A. Kowalski, S. M. Larson, G. J.
    Leonard, D. Rankin, R. L. Seaman, A. Serrano, F. C. Shelly, K. W.
    Wierzchos.  1.0-m prime focus + CCD.
K83 Beppe Forti Astronomical Observatory, Montelupo.  Observers M. Tombelli,
    M. Iozzi, G. Interrante, M. Lombardo, T. Bitossi, A. Squilloni, F. Cheli,
    A. Mazzanti, D. Antonacci, L. Dimare, S. Cicalo, D. Bracali Cioci, F.
    Guerra, A. Bertolucci, L. Bedini, V. Baldisserotto, F. Pellegrini, F.
    Delfino, S. Becherini, S. Morelli, F. Soriani.  Measurers M. Tombelli, F.
    Bernardi.  0.40-m f/8 Ritchey-Chretien + CCD.
L90 ABObservatory, Rosarno.  Observer A. Brosio.  0.30-m f/4.0 reflector +
    CCD.
M38 Harsona Observatory, Nyiregyhaza.  Observer T. Elek.  0.20-m f/3 reflector
    + CCD.
X09 Deep Random Survey, Rio Hurtado.  Observers A. Schnabel, D. Ruhela.
    Measurer S. Deen.  0.43-m reflector + CMOS.
Orbital elements:
2023 SA                                                  Earth MOID = 0.0210 AU
Epoch 2023 Sept. 13.0 TT = JDT 2460200.5                Veres                   
M   0.34446              (2000.0)            P               Q                  
n   0.69924837     Peri.  175.17075     +0.98219812     +0.18100611             
a   1.2571345      Node   173.69407     -0.18400379     +0.98088176             
e   0.1840022      Incl.   27.21735     -0.03780822     -0.07146866             
P   1.41           H   26.78          G   0.15           U   8                  
Residuals in seconds of arc
230916 G96  0.8+  1.9-    230916 246  1.6-  2.1+    230916 L90  1.5-  0.2-
230916 G96  0.5+  2.8-    230916 246  2.0-  1.1+    230916 K83  0.4+  0.0
230916 G96  0.1-  0.1+    230916 246  1.5-  1.5+    230916 958  2.3+  1.8-
230916 I52  0.1+  1.3-    230916 246  2.3-  0.8+    230916 M38  0.5+  0.0
230916 I52  0.1-  1.2-    230916 246  1.0-  2.0+    230916 958  2.3+  0.9-
230916 I52  0.1-  1.3-    230916 246  0.3-  1.2+    230916 K83  0.3+  0.3+
230916 I52  0.2+  1.1-    230916 246  0.9+  1.8+    230916 958  2.3+  0.4-
230916 X09  0.2+  1.8-    230916 246  0.8+  2.8+    230916 G34  0.7+  0.2-
230916 X09  1.3-  0.8-    230916 246  0.4-  2.0+    230916 K83  0.3+  0.3+
230916 I52  0.0   0.2+    230916 246  1.0-  1.9+    230916 M38  0.0   1.1-
230916 I52  0.0   0.1+    230916 246  1.4-  2.0+    230916 G34  0.1+  0.6-
230916 I52  0.0   0.1+    230916 246  0.5+  0.7+    230916 G34  0.9-  0.9+
230916 I52  0.3+  0.0     230916 L90  4.6-  1.5-
230916 246  0.2-  0.7+    230916 L90  5.1-  0.8+
Ephemeris:
2023 SA                  a,e,i = 1.26, 0.18, 27                  q = 1.0258
Date    TT    R. A. (2000) Decl.     Delta      r    Elong.  Phase     V
2023 08 17    18 33 45.2 +70 17 29   0.2529  1.0435    90.0    76.0    26.5
...
2023 09 01    19 13 29.2 +69 16 23   0.1362  1.0292    94.6    77.9    25.2
...
2023 09 09    20 23 20.0 +64 56 55   0.07125 1.0261   103.2    72.9    23.6
...
2023 09 15    22 28 46.2 +37 19 52   0.02721 1.0260   137.0    42.0    20.6
2023 09 16    22 57 23.1 +21 47 48   0.02278 1.0261   153.8    25.6    19.8
2023 09 17    23 26 52.7 +01 07 16   0.02102 1.0263   175.6     4.3    18.8
...
2023 09 23    01 55 23.2 -60 31 58   0.05490 1.0286   115.6    61.6    22.7
...
2023 10 01    03 21 58.3 -68 13 25   0.1198  1.0344   102.7    70.8    24.7
...
2023 10 16    04 03 53.6 -69 32 42   0.2390  1.0535    97.0    69.9    26.2
M. P. C. Staff               (C) Copyright 2023 MPC           M.P.E.C. 2023-S16
    
    
More information about the Iaude
mailing list